Wind_Speed
15 16 16 17 18 19 19 19 20 20 21 22 23 23 23 23 23 24 25 25 25 26 26 27 29 29 30 30 30 29 30 30 32 32 32 33 33 33
14 15 16 17 18 19 19 19 19 20 21 22 23 22 22 23 23 23 24 24 24 25 26 26 27 28 28 30 31 30 31 31 31 32 33 34 34 34
13 14 15 17 17 18 19 19 19 20 20 21 22 23 23 24 24 24 23 24 25 26 27 28 28 28 28 29 30 30 31 31 32 34 34 35 36 36
14 14 14 15 16 17 18 18 19 19 20 20 21 22 23 23 24 24 25 25 26 26 27 28 28 29 30 31 32 32 33 33 34 34 35 36 37 38
14 15 15 16 17 17 18 18 18 19 20 21 21 21 22 23 24 25 26 26 27 28 29 29 30 30 31 32 33 34 34 35 35 35 36 37 37 38
15 15 16 16 17 17 17 18 19 20 21 21 22 23 24 24 25 26 26 27 28 29 30 30 30 30 31 32 34 35 36 37 37 37 38 39 39 40
15 15 16 16 17 17 18 19 20 20 21 22 23 23 24 25 25 26 26 27 29 30 30 31 32 32 32 34 35 36 36 36 37 38 39 39 39 40
15 16 16 17 18 18 19 20 20 21 21 22 23 24 25 25 26 27 28 28 29 31 32 33 33 34 34 35 35 35 36 37 38 39 39 40 41 41
17 17 17 18 19 19 19 20 21 22 22 23 24 25 26 27 28 29 30 30 31 32 32 33 33 34 34 35 35 36 37 38 39 40 41 41 42 43
17 18 19 19 19 19 20 21 21 22 24 25 26 27 28 28 29 30 31 32 32 32 33 34 34 35 36 36 37 37 38 39 39 40 41 41 41 42
18 19 20 20 20 20 21 22 23 24 26 27 27 28 28 29 30 31 31 32 32 33 34 34 35 35 36 37 37 37 38 38 39 39 39 39 39 40
19 20 21 21 22 22 23 24 25 26 27 28 28 29 29 30 31 31 32 32 33 34 35 35 35 35 35 36 36 37 37 38 38 38 38 38 38 38
21 22 23 23 24 24 25 26 27 28 28 28 29 29 30 31 31 32 33 34 34 35 36 36 36 36 36 36 36 37 37 37 38 38 38 38 38 38
23 23 24 24 25 26 27 28 28 29 29 30 30 31 31 31 32 33 34 34 35 35 36 36 36 36 36 36 36 37 37 38 38 38 38 38 38 38
24 24 25 26 27 28 28 28 29 30 30 31 31 31 32 32 33 33 34 35 35 35 35 35 35 35 36 36 36 37 37 37 38 39 38 38 38 38
26 26 27 27 28 28 29 29 29 30 30 31 32 32 32 33 34 34 35 35 35 36 35 34 34 34 34 34 35 35 35 36 36 36 36 37 37 37
27 28 28 28 29 29 30 30 30 30 31 31 32 32 33 34 34 34 34 34 34 34 33 33 33 33 33 33 33 33 34 34 35 35 34 34 34 34
28 28 28 29 29 29 30 30 30 31 31 32 32 33 33 34 34 33 33 33 33 33 33 33 33 33 33 33 33 33 33 33 32 32 31 30 29 29
29 29 29 29 30 30 30 31 31 32 32 33 33 33 33 33 33 33 33 33 32 33 32 32 32 32 32 32 32 32 31 31 30 29 29 28 27 26
29 29 30 30 30 31 31 31 32 33 33 33 34 34 33 33 32 32 32 33 33 33 32 32 31 31 31 31 31 30 29 29 28 28 27 27 26 25
29 29 30 30 31 31 32 32 32 32 32 33 33 32 32 32 32 32 32 33 33 32 32 31 31 31 30 30 30 29 28 28 27 26 25 25 24 23
29 30 30 30 30 31 31 32 32 32 32 33 32 31 31 31 31 32 32 33 32 32 32 32 31 30 30 29 29 29 28 27 26 26 25 24 23 22
29 29 29 30 31 31 31 31 31 32 32 32 31 31 31 31 32 32 33 33 32 32 32 31 30 30 29 29 28 27 27 26 25 24 24 23 22 22
Wind_Direction
281 276 275 276 275 275 276 277 277 277 278 280 281 281 283 281 280 282 282 281 281 281 282 283 282 279 277 277 277 277 276 275 275 274 274 273 273 272
287 282 280 281 279 279 277 277 279 279 280 280 282 283 285 282 281 283 282 282 281 282 283 284 283 282 279 276 276 274 275 276 275 276 275 275 275 274
290 289 287 286 285 284 279 278 281 282 283 284 286 286 285 284 284 286 285 285 284 284 285 286 285 284 281 280 279 278 278 278 278 277 277 277 276 276
293 292 292 293 291 288 283 283 285 287 288 287 287 288 287 285 285 286 287 286 286 285 286 287 286 284 282 281 280 279 279 280 279 278 279 279 278 278
296 294 294 294 292 290 288 288 289 289 288 288 289 290 290 287 285 286 285 284 285 285 286 286 287 286 284 283 282 281 280 281 279 278 278 278 278 278
300 297 296 295 294 293 291 289 290 291 291 290 291 291 291 290 289 289 287 287 287 287 287 287 287 287 285 284 284 284 283 283 281 280 280 281 281 280
304 301 300 299 297 295 294 293 293 294 293 293 294 292 291 291 292 290 288 290 291 290 288 288 287 286 285 285 285 285 284 285 284 282 281 281 282 282
305 303 302 301 298 296 296 295 295 296 297 295 294 293 293 292 292 293 292 292 292 291 290 289 288 288 287 286 286 286 286 285 285 284 283 282 281 282
307 305 304 301 299 297 296 297 298 297 297 297 298 298 295 294 294 294 294 295 294 293 293 293 292 292 290 288 288 287 287 287 287 286 285 284 284 283
309 307 304 302 301 300 297 297 299 299 299 299 299 300 299 297 297 297 297 297 296 295 294 294 294 294 292 291 291 290 289 289 288 287 287 285 284 284
309 307 306 305 304 303 302 302 302 303 302 302 302 301 300 299 299 299 299 299 299 299 298 297 296 296 295 295 294 293 292 291 290 289 289 287 286 286
309 308 307 306 305 305 304 304 305 305 305 305 304 304 303 302 301 301 300 300 300 299 299 298 298 298 297 297 296 295 295 294 293 291 291 290 289 288
307 307 306 306 306 306 306 306 306 306 306 306 306 305 305 304 303 302 302 302 301 301 300 299 299 299 298 298 297 296 295 294 293 293 293 292 291 289
307 307 306 305 305 306 307 307 306 307 308 308 307 306 306 305 305 305 304 304 303 303 302 301 301 300 299 298 298 297 295 294 294 293 293 292 291 291
307 306 305 305 306 307 308 308 307 308 309 309 309 308 307 307 307 306 306 305 305 305 304 303 302 301 300 300 299 297 297 296 296 296 294 293 293 291
306 306 306 305 306 307 308 308 308 309 310 310 310 309 308 308 308 307 307 307 307 307 307 306 305 305 304 303 302 301 300 299 299 298 297 296 294 292
305 306 306 306 305 306 308 309 309 310 311 312 311 310 310 310 310 310 309 309 309 309 309 309 308 307 307 306 305 304 305 304 303 301 300 299 297 296
305 306 306 306 307 308 309 311 311 311 312 312 312 311 311 311 311 311 311 311 311 310 310 309 309 308 308 308 308 308 308 307 306 305 304 303 302 301
306 307 308 308 309 309 310 311 311 311 312 312 312 312 312 312 311 312 312 312 312 312 312 311 310 310 310 310 309 309 309 309 309 308 308 306 304 304
306 307 309 310 310 310 310 310 311 312 312 313 313 313 313 312 312 313 313 313 313 313 313 312 311 311 310 310 310 310 310 310 309 310 310 308 306 305
306 307 309 309 310 311 311 312 313 313 313 314 314 314 314 314 314 314 315 315 315 314 314 313 313 312 312 312 311 311 311 310 310 311 312 311 309 307
307 308 309 310 311 312 313 314 314 314 314 314 315 315 315 315 315 315 316 316 316 315 314 314 313 313 313 312 313 313 312 312 312 313 313 311 309 308
307 309 310 310 311 312 313 314 315 315 315 315 315 315 316 316 316 316 317 316 316 316 316 315 314 313 313 313 313 313 312 312 312 313 313 312 311 310
Height
5868 5867 5867 5866 5866 5865 5864 5864 5864 5863 5863 5861 5860 5859 5857 5857 5856 5855 5854 5853 5852 5851 5850 5849 5847 5846 5845 5844 5844 5843 5842 5841 5840 5839 5838 5838 5838 5837
5864 5863 5863 5862 5861 5860 5859 5859 5859 5859 5858 5856 5855 5854 5852 5851 5850 5849 5848 5847 5845 5844 5843 5842 5840 5839 5838 5837 5836 5835 5834 5833 5832 5831 5830 5829 5828 5827
5861 5860 5859 5858 5857 5856 5855 5854 5853 5853 5852 5851 5849 5848 5847 5846 5845 5844 5842 5841 5839 5838 5836 5834 5833 5832 5830 5829 5828 5827 5826 5824 5823 5822 5821 5820 5819 5818
5858 5857 5855 5854 5853 5852 5851 5850 5849 5848 5847 5846 5844 5843 5842 5840 5839 5838 5836 5835 5833 5831 5829 5827 5826 5824 5823 5821 5820 5818 5817 5816 5814 5813 5811 5810 5808 5807
5855 5854 5852 5851 5849 5848 5847 5846 5844 5843 5842 5841 5840 5838 5836 5834 5833 5831 5830 5828 5826 5824 5822 5820 5818 5816 5814 5813 5811 5809 5808 5806 5804 5802 5801 5799 5797 5796
5852 5850 5849 5847 5845 5844 5842 5841 5840 5839 5837 5836 5834 5832 5830 5828 5827 5825 5823 5821 5819 5817 5815 5813 5811 5808 5806 5804 5802 5800 5798 5796 5794 5792 5790 5788 5786 5784
5848 5847 5845 5843 5841 5840 5839 5837 5835 5834 5832 5830 5829 5826 5824 5822 5820 5818 5816 5814 5811 5809 5807 5805 5802 5800 5798 5795 5793 5790 5788 5785 5783 5781 5779 5777 5775 5773
5845 5843 5842 5840 5838 5836 5834 5833 5831 5829 5827 5825 5823 5821 5818 5816 5814 5811 5809 5807 5804 5802 5799 5796 5793 5790 5788 5785 5783 5780 5778 5775 5773 5770 5767 5765 5763 5761
5842 5840 5838 5836 5834 5832 5830 5828 5827 5824 5822 5820 5818 5815 5812 5810 5807 5804 5801 5799 5796 5793 5790 5787 5784 5781 5778 5775 5772 5769 5767 5764 5761 5758 5756 5753 5750 5748
5839 5837 5834 5832 5830 5828 5826 5824 5822 5819 5817 5814 5812 5809 5806 5803 5800 5797 5793 5790 5787 5784 5781 5778 5774 5771 5768 5765 5762 5759 5756 5753 5750 5747 5744 5741 5738 5736
5835 5833 5830 5828 5826 5823 5821 5819 5816 5814 5811 5808 5805 5802 5798 5795 5792 5789 5786 5782 5779 5776 5772 5769 5765 5762 5758 5755 5751 5748 5745 5742 5738 5735 5732 5729 5726 5724
5831 5829 5826 5824 5821 5819 5816 5813 5810 5807 5804 5801 5798 5794 5791 5788 5784 5781 5777 5774 5771 5767 5763 5760 5756 5753 5749 5745 5741 5738 5734 5731 5727 5724 5721 5718 5715 5712
5827 5824 5821 5819 5816 5813 5810 5807 5804 5801 5798 5794 5791 5787 5784 5780 5776 5772 5769 5765 5762 5758 5754 5750 5747 5743 5739 5735 5731 5727 5724 5720 5717 5713 5710 5707 5704 5701
5822 5819 5816 5813 5810 5807 5804 5801 5798 5794 5791 5787 5783 5780 5776 5772 5768 5764 5760 5756 5752 5749 5744 5740 5737 5733 5729 5725 5721 5717 5713 5710 5706 5702 5699 5695 5692 5689
5816 5813 5810 5807 5804 5801 5798 5794 5791 5788 5784 5780 5776 5772 5768 5764 5760 5756 5752 5748 5743 5739 5735 5731 5727 5723 5719 5715 5711 5707 5703 5699 5695 5691 5688 5684 5681 5678
5811 5808 5804 5801 5798 5794 5791 5787 5784 5780 5776 5772 5768 5764 5760 5756 5752 5748 5744 5739 5735 5730 5726 5722 5717 5713 5709 5705 5701 5697 5693 5689 5685 5681 5677 5673 5670 5666
5804 5801 5798 5795 5791 5788 5784 5780 5777 5773 5769 5765 5761 5757 5752 5748 5744 5739 5735 5730 5726 5722 5717 5713 5709 5704 5700 5696 5692 5688 5683 5679 5675 5671 5667 5664 5660 5656
5798 5794 5791 5788 5784 5781 5777 5773 5769 5766 5762 5757 5753 5749 5744 5740 5735 5731 5727 5723 5718 5714 5709 5705 5700 5696 5692 5688 5684 5679 5675 5670 5666 5662 5659 5655 5651 5648
5791 5787 5784 5781 5777 5774 5770 5766 5762 5758 5754 5750 5746 5741 5736 5732 5728 5723 5719 5715 5710 5706 5701 5697 5692 5688 5684 5679 5675 5671 5667 5663 5659 5655 5651 5648 5644 5641
5784 5780 5777 5774 5770 5766 5763 5759 5755 5750 5746 5742 5738 5733 5729 5724 5720 5715 5711 5707 5702 5698 5693 5689 5684 5680 5676 5672 5668 5663 5659 5655 5651 5648 5644 5641 5637 5634
5777 5773 5770 5766 5763 5759 5755 5751 5747 5743 5739 5734 5730 5725 5721 5717 5712 5708 5703 5699 5694 5690 5685 5681 5677 5672 5668 5664 5660 5656 5652 5648 5644 5641 5637 5634 5631 5628
5769 5766 5763 5759 5755 5751 5747 5744 5739 5735 5731 5727 5722 5718 5714 5709 5705 5700 5696 5691 5686 5682 5678 5673 5669 5665 5661 5657 5653 5649 5645 5641 5637 5634 5631 5628 5625 5622
5762 5759 5755 5752 5748 5744 5740 5736 5732 5728 5724 5719 5715 5710 5706 5702 5697 5693 5688 5684 5679 5675 5670 5666 5661 5657 5653 5649 5646 5642 5638 5635 5631 5628 5625 5622 5619 5616